User: anonymous   Login
Location: B�rgermoos
(47.6500°N, 9.0667°E)
Time: 13:40:00
(UTC+00:00)
Language:

Tiros 1 - Orbit

View from above orbital plane
View from above orbital plane
View from above satellite
View from above satellite

Ground track
Ground track

The orbit data is extracted from the following two-line orbital elements,

1 00029U 60002B   21215.57363428 -.00000134  00000-0  11098-4 0  9990
2 00029  48.3790 163.5726 0024075 197.2461 162.7635 14.74443059279359
Epoch (UTC): 03 August 2021 13:46:02
Eccentricity: 0.0024075
inclination: 48.3790°
perigee height: 630 km
apogee height: 664 km
right ascension of ascending node: 163.5726°
argument of perigee: 197.2461°
revolutions per day: 14.74443059
mean anomaly at epoch: 162.7635°
orbit number at epoch: 27935

The dashed part of the orbit path shows where the satellite is in the earth's shadow,  

DLR